Date String (YYYY-MM-DD hh:mm:ss) UTC,Instrument flags,absolute air pressure of the measurement (hPa),sample flow rate (lpm),inlet stack bypass flow (lpm),air temperature of the measurement (°C),ambient temperature measured by the external sensor (°C),aerosol sample conditioner tube jacket temperature (°C),OPC LED temperature (°C),internal box temperature (°C),relative humidity of the measurement (%),span deviation,mass concentration of particles derived from Lorenz-Mie calculation of OPC scattering (μg/m³),mass concentration of particles derived from Lorenz-Mie calculation of OPC scattering (μg/m³),mass concentration of particles derived from Lorenz-Mie calculation of OPC scattering (μg/m³)
DateTimeUTC,F1_M11,P_M11,Q1_M11,Q2_M11,T1_M11,T2_M11,T3_M11,T4_M11,T5_M11,U1_M11,ZSPAN_M11,X0_M11,X2_M11,X1_M11
2023-06-15 02:00:00,SystemResetWarning,0825.1,5.01,000.00,029.5,026.8,000.0,038.0,031.0,24.5,0000.0,0009.97,0003.70,0003.13
2023-06-15 02:01:00,SystemResetWarning,0825.1,4.98,000.00,029.5,027.1,000.0,038.0,031.0,24.2,0000.0,0009.81,0003.65,0003.12
2023-06-15 02:02:00,SystemResetWarning,0825.1,5.01,000.00,029.5,027.3,000.0,038.0,031.0,24.5,0000.0,0009.88,0003.64,0003.11
2023-06-15 02:03:00,SystemResetWarning,0825.1,5.01,000.00,029.5,027.5,000.0,038.0,031.1,24.2,0000.0,0009.63,0003.59,0003.09
2023-06-15 02:04:00,SystemResetWarning,0825.1,5.00,000.00,029.5,027.7,000.0,038.0,031.2,24.4,0000.0,0008.88,0003.55,0003.07
2023-06-15 02:05:00,SystemResetWarning,0825.1,5.01,000.00,029.6,027.8,000.0,038.1,031.2,23.9,0000.0,0008.76,0003.52,0003.04
2023-06-15 02:06:00,SystemResetWarning,0825.1,5.00,000.00,029.6,028.0,000.0,038.1,031.2,24.1,0000.0,0008.87,0003.47,0003.00
2023-06-15 02:07:00,SystemResetWarning,0825.1,5.00,000.00,029.6,028.1,000.0,038.1,031.2,23.8,0000.0,0008.56,0003.44,0002.96
2023-06-15 02:08:00,SystemResetWarning,0825.1,5.00,000.00,029.6,028.2,000.0,038.1,031.3,24.4,0000.0,0008.04,0003.43,0002.91
2023-06-15 02:09:00,SystemResetWarning,0825.1,5.00,000.00,029.7,028.2,000.0,038.1,031.4,24.1,0000.0,0007.76,0003.45,0002.90
2023-06-15 02:10:00,SystemResetWarning,0825.0,5.00,000.00,029.7,028.3,000.0,038.1,031.4,24.2,0000.0,0007.88,0003.48,0002.88
2023-06-15 02:11:00,SystemResetWarning,0825.0,5.00,000.00,029.7,028.4,000.0,038.2,031.4,23.7,0000.0,0007.33,0003.44,0002.85
2023-06-15 02:12:00,SystemResetWarning,0825.0,5.00,000.00,029.8,028.4,000.0,038.2,031.4,23.7,0000.0,0008.25,0003.45,0002.83
2023-06-15 02:13:00,SystemResetWarning,0825.0,4.98,000.00,029.8,027.2,000.0,038.2,031.4,23.0,0000.0,0008.69,0003.39,0002.78
2023-06-15 02:14:00,SystemResetWarning,0825.0,5.02,000.00,029.8,025.2,000.0,038.1,031.3,21.9,0000.0,0008.53,0003.34,0002.71
2023-06-15 02:15:00,SystemResetWarning,0824.9,5.01,000.00,029.7,024.9,000.0,038.1,031.1,20.3,0000.0,0008.42,0003.31,0002.66
2023-06-15 02:16:00,SystemResetWarning,0824.9,5.00,000.00,029.6,025.2,000.0,038.1,030.9,21.3,0000.0,0008.39,0003.27,0002.60
2023-06-15 02:17:00,SystemResetWarning,0824.9,5.00,000.00,029.5,025.6,000.0,038.1,030.9,20.6,0000.0,0008.16,0003.23,0002.56
2023-06-15 02:18:00,SystemResetWarning,0824.9,5.00,000.00,029.5,026.1,000.0,038.0,030.8,19.8,0000.0,0007.65,0003.21,0002.56
2023-06-15 02:19:00,SystemResetWarning,0824.9,5.00,000.00,029.5,026.4,000.0,038.0,030.9,19.9,0000.0,0007.60,0003.16,0002.57
2023-06-15 02:20:00,SystemResetWarning,0824.9,4.99,000.00,029.5,026.8,000.0,038.0,030.9,19.9,0000.0,0007.74,0003.17,0002.58
2023-06-15 02:21:00,SystemResetWarning,0824.9,5.00,000.00,029.5,027.0,000.0,038.0,030.9,19.8,0000.0,0007.56,0003.13,0002.58
2023-06-15 02:22:00,SystemResetWarning,0824.9,5.02,000.00,029.5,027.3,000.0,038.0,031.0,19.4,0000.0,0007.99,0003.14,0002.62
2023-06-15 02:23:00,SystemResetWarning,0824.9,5.00,000.00,029.5,027.4,000.0,038.0,031.0,18.8,0000.0,0007.31,0003.16,0002.71
2023-06-15 02:24:00,SystemResetWarning,0824.9,4.99,000.00,029.5,027.6,000.0,038.0,031.0,19.0,0000.0,0006.37,0003.23,0002.82
2023-06-15 02:25:00,SystemResetWarning,0824.9,5.00,000.00,029.5,027.7,000.0,038.0,031.1,18.7,0000.0,0006.44,0003.27,0002.92
2023-06-15 02:26:00,SystemResetWarning,0824.9,5.00,000.00,029.5,027.8,000.0,038.1,031.1,18.6,0002.2,0006.62,0003.31,0003.05
2023-06-15 02:27:00,SystemResetWarning,0824.9,5.00,000.00,029.5,027.9,000.0,038.1,031.1,18.2,0002.9,0006.78,0003.38,0003.15
2023-06-15 02:28:00,SystemResetWarning,0824.9,5.01,000.00,029.6,028.0,000.0,038.1,031.2,17.9,0003.3,0007.16,0003.46,0003.24
2023-06-15 02:29:00,SystemResetWarning,0824.8,5.00,000.00,029.6,028.0,000.0,038.1,031.2,17.8,0003.5,0007.84,0003.52,0003.30
2023-06-15 02:30:00,SystemResetWarning,0824.8,5.00,000.00,029.6,028.1,000.0,038.1,031.1,17.1,0003.5,0007.84,0003.56,0003.33
2023-06-15 02:31:00,SystemResetWarning,0824.8,5.01,000.00,029.6,028.1,000.0,038.1,031.2,17.3,0003.4,0007.75,0003.58,0003.35
2023-06-15 02:32:00,SystemResetWarning,0824.8,5.00,000.00,029.7,028.2,000.0,038.1,031.2,17.7,0003.4,0007.75,0003.60,0003.38
2023-06-15 02:33:00,SystemResetWarning,0824.8,5.00,000.00,029.7,028.2,000.0,038.1,031.3,17.8,0003.5,0007.35,0003.63,0003.41
2023-06-15 02:34:00,SystemResetWarning,0824.8,4.99,000.00,029.7,028.2,000.0,038.2,031.3,17.7,0003.6,0006.87,0003.64,0003.41
2023-06-15 02:35:00,SystemResetWarning,0824.8,5.00,000.00,029.7,028.3,000.0,038.2,031.3,17.8,0003.6,0006.83,0003.62,0003.40
2023-06-15 02:36:00,SystemResetWarning,0824.8,4.99,000.00,029.8,028.3,000.0,038.2,031.3,17.9,0004.1,0006.75,0003.60,0003.39
2023-06-15 02:37:00,SystemResetWarning,0824.8,5.00,000.00,029.8,028.3,000.0,038.2,031.3,18.1,0004.1,0006.69,0003.58,0003.37
2023-06-15 02:38:00,SystemResetWarning,0824.9,5.00,000.00,029.8,027.3,000.0,038.2,031.3,18.1,0004.0,0006.54,0003.54,0003.34
2023-06-15 02:39:00,SystemResetWarning,0824.8,5.00,000.00,029.8,025.2,000.0,038.1,031.2,18.0,0003.9,0006.39,0003.52,0003.32
2023-06-15 02:40:00,SystemResetWarning,0824.8,5.00,000.00,029.7,024.9,000.0,038.1,031.1,18.2,0003.8,0005.27,0003.49,0003.30
2023-06-15 02:41:00,SystemResetWarning,0824.8,5.01,000.00,029.6,025.2,000.0,038.1,030.8,18.4,0003.5,0005.47,0003.52,0003.31
2023-06-15 02:42:00,SystemResetWarning,0824.8,5.01,000.00,029.5,025.6,000.0,038.1,030.8,18.3,0003.4,0005.51,0003.50,0003.31
2023-06-15 02:43:00,SystemResetWarning,0824.8,4.99,000.00,029.5,026.0,000.0,038.1,030.9,17.8,0003.6,0005.41,0003.47,0003.29
2023-06-15 02:44:00,SystemResetWarning,0824.8,5.00,000.00,029.5,026.4,000.0,038.1,030.9,18.4,0003.5,0005.26,0003.42,0003.26
2023-06-15 02:45:00,SystemResetWarning,0824.9,5.01,000.00,029.5,026.7,000.0,038.1,030.9,18.4,0003.6,0005.24,0003.41,0003.26
2023-06-15 02:46:00,SystemResetWarning,0824.9,5.00,000.00,029.5,027.0,000.0,038.1,031.0,18.3,0003.4,0005.22,0003.39,0003.24
2023-06-15 02:47:00,SystemResetWarning,0824.9,4.99,000.00,029.5,027.2,000.0,038.1,031.0,18.6,0002.9,0005.27,0003.39,0003.22
2023-06-15 02:48:00,SystemResetWarning,0824.9,5.02,000.00,029.5,027.4,000.0,038.1,031.1,18.9,0003.2,0005.25,0003.39,0003.22
2023-06-15 02:49:00,SystemResetWarning,0824.9,5.00,000.00,029.5,027.6,000.0,038.1,031.1,18.8,0003.2,0005.22,0003.39,0003.22
2023-06-15 02:50:00,SystemResetWarning,0824.9,4.99,000.00,029.5,027.7,000.0,038.1,031.1,19.0,0003.4,0005.30,0003.38,0003.21
2023-06-15 02:51:00,SystemResetWarning,0824.9,4.99,000.00,029.6,027.8,000.0,038.1,031.2,19.4,0003.5,0005.43,0003.41,0003.22
2023-06-15 02:52:00,SystemResetWarning,0824.9,4.99,000.00,029.6,027.9,000.0,038.1,031.2,20.1,0003.6,0005.56,0003.40,0003.23
2023-06-15 02:53:00,SystemResetWarning,0824.9,5.00,000.00,029.6,028.0,000.0,038.1,031.2,20.2,0003.9,0007.11,0003.46,0003.29
2023-06-15 02:54:00,SystemResetWarning,0824.9,5.01,000.00,029.6,028.1,000.0,038.1,031.2,19.8,0003.9,0007.28,0003.52,0003.34
2023-06-15 02:55:00,SystemResetWarning,0824.9,5.01,000.00,029.7,028.2,000.0,038.1,031.3,19.6,0003.9,0007.51,0003.61,0003.43
2023-06-15 02:56:00,SystemResetWarning,0824.9,4.99,000.00,029.7,028.2,000.0,038.2,031.3,19.2,0003.7,0007.67,0003.68,0003.49
2023-06-15 02:57:00,SystemResetWarning,0824.9,4.99,000.00,029.7,028.2,000.0,038.2,031.3,19.2,0003.9,0007.91,0003.77,0003.58
2023-06-15 02:58:00,SystemResetWarning,0824.9,4.99,000.00,029.7,028.3,000.0,038.2,031.3,19.3,0004.0,0008.04,0003.87,0003.68
2023-06-15 02:59:00,SystemResetWarning,0824.9,5.00,000.00,029.7,028.3,000.0,038.2,031.3,19.2,0003.6,0008.16,0003.96,0003.76
